Time,TemperatureF,DewpointF,PressureIn,WindDirection,WindDirectionDegrees,WindSpeedMPH,WindSpeedGustMPH,Humidity,HourlyPrecipIn,Conditions,Clouds,dailyrainin,SoftwareType,DateUTC
2013-09-04 00:03:00,59.0,55.4,30.01,SW,220,0.0,6.0,88,0.00,,,0.01,Wunderground v.1.15,2013-09-04 05:03:00,
2013-09-04 00:08:00,59.0,55.4,30.01,SW,220,0.0,6.0,88,0.00,,,0.00,Wunderground v.1.15,2013-09-04 05:08:00,
2013-09-04 00:14:00,59.0,55.1,30.01,SW,220,0.0,6.0,87,0.00,,,0.00,Wunderground v.1.15,2013-09-04 05:14:00,
2013-09-04 00:19:00,58.8,54.9,30.01,SW,220,0.0,6.0,87,0.00,,,0.00,Wunderground v.1.15,2013-09-04 05:19:00,
2013-09-04 00:24:00,58.6,54.7,30.01,SW,220,0.0,6.0,87,0.00,,,0.00,Wunderground v.1.15,2013-09-04 05:24:00,
2013-09-04 00:29:00,58.5,54.6,30.01,SW,220,0.0,6.0,87,0.00,,,0.00,Wunderground v.1.15,2013-09-04 05:29:00,
2013-09-04 00:34:00,58.3,54.4,30.01,SW,220,0.0,6.0,87,0.00,,,0.00,Wunderground v.1.15,2013-09-04 05:34:00,
2013-09-04 00:40:00,58.1,54.2,30.01,SW,220,0.0,6.0,87,0.00,,,0.00,Wunderground v.1.15,2013-09-04 05:40:00,
2013-09-04 00:45:00,57.8,53.6,30.01,SW,220,0.0,6.0,86,0.00,,,0.00,Wunderground v.1.15,2013-09-04 05:45:00,
2013-09-04 00:50:00,57.5,53.3,30.01,SW,220,0.0,6.0,86,0.00,,,0.00,Wunderground v.1.15,2013-09-04 05:50:00,
2013-09-04 00:55:00,57.0,52.9,30.01,SW,220,0.0,6.0,86,0.00,,,0.00,Wunderground v.1.15,2013-09-04 05:55:00,
2013-09-04 01:00:00,56.9,53.1,30.01,SW,220,0.0,6.0,87,0.00,,,0.00,Wunderground v.1.15,2013-09-04 06:00:00,
2013-09-04 01:06:00,56.8,53.3,30.01,SW,220,0.0,6.0,88,0.00,,,0.00,Wunderground v.1.15,2013-09-04 06:06:00,
2013-09-04 01:11:00,56.8,53.3,30.02,SW,220,0.0,6.0,88,0.00,,,0.00,Wunderground v.1.15,2013-09-04 06:11:00,
2013-09-04 01:17:00,56.8,53.3,30.02,SW,220,0.0,6.0,88,0.00,,,0.00,Wunderground v.1.15,2013-09-04 06:17:00,
2013-09-04 01:22:00,56.8,53.3,30.02,SW,220,0.0,6.0,88,0.00,,,0.00,Wunderground v.1.15,2013-09-04 06:22:00,
2013-09-04 01:28:00,56.7,53.2,30.02,SW,220,0.0,6.0,88,0.00,,,0.00,Wunderground v.1.15,2013-09-04 06:28:00,
2013-09-04 01:33:00,56.6,53.4,30.02,SW,220,0.0,6.0,89,0.00,,,0.00,Wunderground v.1.15,2013-09-04 06:33:00,
2013-09-04 01:38:00,56.6,53.1,30.03,SW,220,0.0,6.0,88,0.00,,,0.00,Wunderground v.1.15,2013-09-04 06:38:00,
2013-09-04 01:43:00,56.5,53.0,30.03,SW,220,0.0,6.0,88,0.00,,,0.00,Wunderground v.1.15,2013-09-04 06:43:00,
2013-09-04 01:49:00,56.4,52.9,30.03,SW,220,0.0,6.0,88,0.00,,,0.00,Wunderground v.1.15,2013-09-04 06:49:00,
2013-09-04 01:55:00,56.1,52.6,30.03,SW,220,0.0,6.0,88,0.00,,,0.00,Wunderground v.1.15,2013-09-04 06:55:00,
2013-09-04 02:00:00,55.8,52.3,30.03,SW,220,0.0,6.0,88,0.00,,,0.00,Wunderground v.1.15,2013-09-04 07:00:00,
2013-09-04 02:05:00,55.5,51.7,30.03,SW,220,0.0,6.0,87,0.00,,,0.00,Wunderground v.1.15,2013-09-04 07:05:00,
2013-09-04 02:10:00,55.5,52.0,30.03,SW,220,0.0,6.0,88,0.00,,,0.00,Wunderground v.1.15,2013-09-04 07:10:00,
2013-09-04 02:16:00,55.5,52.3,30.03,SW,220,0.0,6.0,89,0.00,,,0.00,Wunderground v.1.15,2013-09-04 07:16:00,
2013-09-04 02:21:00,55.4,52.2,30.03,SW,220,0.0,6.0,89,0.00,,,0.00,Wunderground v.1.15,2013-09-04 07:21:00,
2013-09-04 02:26:00,55.4,52.2,30.03,SW,220,0.0,6.0,89,0.00,,,0.00,Wunderground v.1.15,2013-09-04 07:26:00,
2013-09-04 02:31:00,55.5,52.3,30.03,SW,220,0.0,6.0,89,0.00,,,0.00,Wunderground v.1.15,2013-09-04 07:31:00,
2013-09-04 02:37:00,55.5,52.3,30.03,SW,220,0.0,6.0,89,0.00,,,0.00,Wunderground v.1.15,2013-09-04 07:37:00,
2013-09-04 02:42:00,55.6,52.4,30.03,SW,220,0.0,6.0,89,0.00,,,0.00,Wunderground v.1.15,2013-09-04 07:42:00,
2013-09-04 02:47:00,55.7,52.8,30.03,SW,220,0.0,6.0,90,0.00,,,0.00,Wunderground v.1.15,2013-09-04 07:47:00,
2013-09-04 02:52:00,55.8,52.6,30.03,SW,220,0.0,6.0,89,0.00,,,0.00,Wunderground v.1.15,2013-09-04 07:52:00,
2013-09-04 02:57:00,55.7,52.5,30.04,SW,220,0.0,6.0,89,0.00,,,0.00,Wunderground v.1.15,2013-09-04 07:57:00,
2013-09-04 03:02:00,55.7,52.5,30.04,SW,220,0.0,6.0,89,0.00,,,0.00,Wunderground v.1.15,2013-09-04 08:02:00,
2013-09-04 03:08:00,55.6,52.4,30.04,SW,220,0.0,6.0,89,0.00,,,0.00,Wunderground v.1.15,2013-09-04 08:08:00,
2013-09-04 03:13:00,55.5,52.3,30.04,SW,220,0.0,6.0,89,0.00,,,0.00,Wunderground v.1.15,2013-09-04 08:13:00,
2013-09-04 03:18:00,55.3,52.1,30.04,SW,220,0.0,6.0,89,0.00,,,0.00,Wunderground v.1.15,2013-09-04 08:18:00,
2013-09-04 03:23:00,55.2,52.0,30.04,SW,220,0.0,6.0,89,0.00,,,0.00,Wunderground v.1.15,2013-09-04 08:23:00,
2013-09-04 03:28:00,55.0,51.8,30.04,SW,220,0.0,6.0,89,0.00,,,0.00,Wunderground v.1.15,2013-09-04 08:28:00,
2013-09-04 03:34:00,55.0,51.8,30.04,SW,220,0.0,6.0,89,0.00,,,0.00,Wunderground v.1.15,2013-09-04 08:34:00,
2013-09-04 03:39:00,55.1,52.2,30.04,SW,220,0.0,6.0,90,0.00,,,0.00,Wunderground v.1.15,2013-09-04 08:39:00,
2013-09-04 03:44:00,55.2,52.0,30.04,SW,220,0.0,6.0,89,0.00,,,0.00,Wunderground v.1.15,2013-09-04 08:44:00,
2013-09-04 03:49:00,55.2,52.0,30.04,SW,220,0.0,6.0,89,0.00,,,0.00,Wunderground v.1.15,2013-09-04 08:49:00,
2013-09-04 03:54:00,55.2,52.0,30.05,SW,220,0.0,6.0,89,0.00,,,0.00,Wunderground v.1.15,2013-09-04 08:54:00,
2013-09-04 04:00:00,55.1,51.9,30.05,SW,220,0.0,6.0,89,0.00,,,0.00,Wunderground v.1.15,2013-09-04 09:00:00,
2013-09-04 04:05:00,55.1,51.9,30.05,SW,220,0.0,6.0,89,0.00,,,0.00,Wunderground v.1.15,2013-09-04 09:05:00,
2013-09-04 04:10:00,55.1,51.9,30.05,SW,220,0.0,6.0,89,0.00,,,0.00,Wunderground v.1.15,2013-09-04 09:10:00,
2013-09-04 04:15:00,55.1,51.9,30.05,SW,220,0.0,6.0,89,0.00,,,0.00,Wunderground v.1.15,2013-09-04 09:15:00,
2013-09-04 04:20:00,55.2,52.0,30.05,SW,220,0.0,6.0,89,0.00,,,0.00,Wunderground v.1.15,2013-09-04 09:20:00,
2013-09-04 04:26:00,55.2,52.0,30.05,SW,220,0.0,6.0,89,0.00,,,0.00,Wunderground v.1.15,2013-09-04 09:26:00,
2013-09-04 04:31:00,55.0,51.5,30.05,SW,220,0.0,6.0,88,0.00,,,0.00,Wunderground v.1.15,2013-09-04 09:31:00,
2013-09-04 04:36:00,54.8,51.3,30.05,SW,220,0.0,6.0,88,0.00,,,0.00,Wunderground v.1.15,2013-09-04 09:36:00,
2013-09-04 04:41:00,54.8,51.6,30.05,SW,220,0.0,6.0,89,0.00,,,0.00,Wunderground v.1.15,2013-09-04 09:41:00,
2013-09-04 04:46:00,54.6,51.1,30.06,SW,220,0.0,6.0,88,0.00,,,0.00,Wunderground v.1.15,2013-09-04 09:46:00,
2013-09-04 04:51:00,54.4,50.9,30.05,SW,220,0.0,6.0,88,0.00,,,0.00,Wunderground v.1.15,2013-09-04 09:51:00,
2013-09-04 04:57:00,54.3,50.8,30.05,SW,220,0.0,6.0,88,0.00,,,0.00,Wunderground v.1.15,2013-09-04 09:57:00,
2013-09-04 05:02:00,54.3,51.1,30.06,SW,220,0.0,6.0,89,0.00,,,0.00,Wunderground v.1.15,2013-09-04 10:02:00,
2013-09-04 05:07:00,54.3,51.1,30.06,SW,220,0.0,6.0,89,0.00,,,0.00,Wunderground v.1.15,2013-09-04 10:07:00,
2013-09-04 05:12:00,54.3,51.1,30.06,SW,220,0.0,6.0,89,0.00,,,0.00,Wunderground v.1.15,2013-09-04 10:12:00,
2013-09-04 05:18:00,54.4,51.2,30.06,SW,220,0.0,6.0,89,0.00,,,0.00,Wunderground v.1.15,2013-09-04 10:18:00,
2013-09-04 05:23:00,54.4,51.2,30.06,SW,220,0.0,6.0,89,0.00,,,0.00,Wunderground v.1.15,2013-09-04 10:23:00,
2013-09-04 05:28:00,54.5,51.3,30.06,SW,220,0.0,6.0,89,0.00,,,0.00,Wunderground v.1.15,2013-09-04 10:28:00,
2013-09-04 05:33:00,54.4,51.2,30.06,SW,220,0.0,6.0,89,0.00,,,0.00,Wunderground v.1.15,2013-09-04 10:33:00,
2013-09-04 05:38:00,54.4,51.2,30.06,SW,220,0.0,6.0,89,0.00,,,0.00,Wunderground v.1.15,2013-09-04 10:38:00,
2013-09-04 05:44:00,54.3,51.1,30.06,SW,220,0.0,6.0,89,0.00,,,0.00,Wunderground v.1.15,2013-09-04 10:44:00,
2013-09-04 05:49:00,54.3,51.1,30.06,SW,220,0.0,6.0,89,0.00,,,0.00,Wunderground v.1.15,2013-09-04 10:49:00,
2013-09-04 05:54:00,54.2,50.7,30.06,SW,220,0.0,6.0,88,0.00,,,0.00,Wunderground v.1.15,2013-09-04 10:54:00,
2013-09-04 05:59:00,54.1,50.6,30.06,SW,220,0.0,6.0,88,0.00,,,0.00,Wunderground v.1.15,2013-09-04 10:59:00,
2013-09-04 06:04:00,54.1,50.9,30.06,SW,220,0.0,6.0,89,0.00,,,0.00,Wunderground v.1.15,2013-09-04 11:04:00,
2013-09-04 06:09:00,54.1,50.9,30.06,SW,220,0.0,6.0,89,0.00,,,0.00,Wunderground v.1.15,2013-09-04 11:09:00,
2013-09-04 06:15:00,54.1,50.9,30.06,SW,220,0.0,6.0,89,0.00,,,0.00,Wunderground v.1.15,2013-09-04 11:15:00,
2013-09-04 06:20:00,54.0,50.8,30.07,SW,220,0.0,6.0,89,0.00,,,0.00,Wunderground v.1.15,2013-09-04 11:20:00,
2013-09-04 06:25:00,54.1,50.9,30.07,SW,220,0.0,6.0,89,0.00,,,0.00,Wunderground v.1.15,2013-09-04 11:25:00,
2013-09-04 06:30:00,54.0,50.5,30.07,SW,220,0.0,6.0,88,0.00,,,0.00,Wunderground v.1.15,2013-09-04 11:30:00,
2013-09-04 06:36:00,53.9,50.7,30.07,SW,220,0.0,6.0,89,0.00,,,0.00,Wunderground v.1.15,2013-09-04 11:36:00,
2013-09-04 06:41:00,54.0,50.8,30.07,SW,220,0.0,6.0,89,0.00,,,0.00,Wunderground v.1.15,2013-09-04 11:41:00,
2013-09-04 06:46:00,54.1,50.9,30.08,SW,220,0.0,6.0,89,0.00,,,0.00,Wunderground v.1.15,2013-09-04 11:46:00,
2013-09-04 06:51:00,54.2,51.0,30.08,SW,220,0.0,6.0,89,0.00,,,0.00,Wunderground v.1.15,2013-09-04 11:51:00,
2013-09-04 06:56:00,54.2,50.7,30.08,SW,220,0.0,6.0,88,0.00,,,0.00,Wunderground v.1.15,2013-09-04 11:56:00,
2013-09-04 07:01:00,54.2,51.0,30.08,SW,220,0.0,6.0,89,0.00,,,0.00,Wunderground v.1.15,2013-09-04 12:01:00,
2013-09-04 07:07:00,54.5,51.3,30.08,SW,220,0.0,6.0,89,0.00,,,0.00,Wunderground v.1.15,2013-09-04 12:07:00,
2013-09-04 07:12:00,54.5,51.3,30.08,SW,220,0.0,0.0,89,0.00,,,0.00,Wunderground v.1.15,2013-09-04 12:12:00,
2013-09-04 07:17:00,54.6,51.4,30.08,SW,220,0.0,0.0,89,0.00,,,0.00,Wunderground v.1.15,2013-09-04 12:17:00,
2013-09-04 07:22:00,54.8,51.6,30.08,SW,220,0.0,0.0,89,0.00,,,0.00,Wunderground v.1.15,2013-09-04 12:22:00,
2013-09-04 07:28:00,55.2,52.0,30.08,SW,220,0.0,0.0,89,0.00,,,0.00,Wunderground v.1.15,2013-09-04 12:28:00,
2013-09-04 07:33:00,55.4,52.2,30.09,SW,220,0.0,0.0,89,0.00,,,0.00,Wunderground v.1.15,2013-09-04 12:33:00,
2013-09-04 07:38:00,55.4,51.9,30.09,SW,220,0.0,0.0,88,0.00,,,0.00,Wunderground v.1.15,2013-09-04 12:38:00,
2013-09-04 07:43:00,55.4,52.2,30.08,SW,220,0.0,0.0,89,0.00,,,0.00,Wunderground v.1.15,2013-09-04 12:43:00,
2013-09-04 07:48:00,55.5,52.3,30.09,SW,220,0.0,0.0,89,0.00,,,0.00,Wunderground v.1.15,2013-09-04 12:48:00,
2013-09-04 07:54:00,55.9,53.0,30.09,SW,220,0.0,0.0,90,0.00,,,0.00,Wunderground v.1.15,2013-09-04 12:54:00,
2013-09-04 07:59:00,56.5,53.9,30.09,SW,220,0.0,0.0,91,0.00,,,0.00,Wunderground v.1.15,2013-09-04 12:59:00,
2013-09-04 08:04:00,57.3,54.7,30.09,SW,220,0.0,0.0,91,0.00,,,0.00,Wunderground v.1.15,2013-09-04 13:04:00,
2013-09-04 08:09:00,58.1,55.2,30.09,SW,220,0.0,0.0,90,0.00,,,0.00,Wunderground v.1.15,2013-09-04 13:09:00,
2013-09-04 08:14:00,58.9,55.7,30.09,SW,220,0.0,0.0,89,0.00,,,0.00,Wunderground v.1.15,2013-09-04 13:14:00,
2013-09-04 08:20:00,59.6,55.7,30.09,SW,220,0.0,0.0,87,0.00,,,0.00,Wunderground v.1.15,2013-09-04 13:20:00,
2013-09-04 08:25:00,60.4,56.2,30.08,SW,220,0.0,0.0,86,0.00,,,0.00,Wunderground v.1.15,2013-09-04 13:25:00,
2013-09-04 08:30:00,61.2,57.0,30.08,SW,220,0.0,0.0,86,0.00,,,0.00,Wunderground v.1.15,2013-09-04 13:30:00,
2013-09-04 08:35:00,62.0,57.4,30.09,SW,220,0.0,0.0,85,0.00,,,0.00,Wunderground v.1.15,2013-09-04 13:35:00,
2013-09-04 08:40:00,62.6,58.0,30.09,SW,220,0.0,0.0,85,0.00,,,0.00,Wunderground v.1.15,2013-09-04 13:40:00,
2013-09-04 08:45:00,63.2,58.9,30.09,SW,220,0.0,0.0,86,0.00,,,0.00,Wunderground v.1.15,2013-09-04 13:45:00,
2013-09-04 08:50:00,63.9,59.6,30.09,SW,220,0.0,0.0,86,0.00,,,0.00,Wunderground v.1.15,2013-09-04 13:50:00,
2013-09-04 08:55:00,64.5,60.2,30.08,SW,220,0.0,0.0,86,0.00,,,0.00,Wunderground v.1.15,2013-09-04 13:55:00,
2013-09-04 09:00:00,65.1,60.5,30.08,SW,220,0.0,0.0,85,0.00,,,0.00,Wunderground v.1.15,2013-09-04 14:00:00,
2013-09-04 09:06:00,66.0,60.3,30.08,SW,220,0.0,0.0,82,0.00,,,0.00,Wunderground v.1.15,2013-09-04 14:06:00,
2013-09-04 09:12:00,67.0,61.0,30.09,SW,220,0.0,0.0,81,0.00,,,0.00,Wunderground v.1.15,2013-09-04 14:12:00,
2013-09-04 09:17:00,67.8,61.4,30.09,SW,220,0.0,0.0,80,0.00,,,0.00,Wunderground v.1.15,2013-09-04 14:17:00,
2013-09-04 09:22:00,68.6,60.0,30.09,SW,220,0.0,1.0,74,0.00,,,0.00,Wunderground v.1.15,2013-09-04 14:22:00,
2013-09-04 09:27:00,69.5,59.3,30.09,SW,229,1.0,2.0,70,0.00,,,0.00,Wunderground v.1.15,2013-09-04 14:27:00,
2013-09-04 09:32:00,70.6,59.5,30.09,SW,233,2.0,3.0,68,0.00,,,0.00,Wunderground v.1.15,2013-09-04 14:32:00,
2013-09-04 09:37:00,71.3,59.8,30.09,SW,234,1.0,3.0,67,0.00,,,0.00,Wunderground v.1.15,2013-09-04 14:37:00,
2013-09-04 09:43:00,72.0,60.0,30.09,SW,234,0.0,1.0,66,0.00,,,0.00,Wunderground v.1.15,2013-09-04 14:43:00,
2013-09-04 09:48:00,72.7,60.7,30.08,SW,234,0.0,1.0,66,0.00,,,0.00,Wunderground v.1.15,2013-09-04 14:48:00,
2013-09-04 09:53:00,73.4,58.7,30.08,WSW,241,1.0,3.0,60,0.00,,,0.00,Wunderground v.1.15,2013-09-04 14:53:00,
2013-09-04 09:58:00,74.0,59.2,30.08,WSW,242,1.0,3.0,60,0.00,,,0.00,Wunderground v.1.15,2013-09-04 14:58:00,
2013-09-04 10:03:00,74.5,59.2,30.08,WSW,243,1.0,2.0,59,0.00,,,0.00,Wunderground v.1.15,2013-09-04 15:03:00,
2013-09-04 10:08:00,74.7,58.5,30.09,WSW,245,2.0,4.0,57,0.00,,,0.00,Wunderground v.1.15,2013-09-04 15:08:00,
2013-09-04 10:13:00,75.1,58.8,30.08,WSW,248,2.0,2.0,57,0.00,,,0.00,Wunderground v.1.15,2013-09-04 15:13:00,
2013-09-04 10:18:00,75.6,58.8,30.08,WSW,248,1.0,3.0,56,0.00,,,0.00,Wunderground v.1.15,2013-09-04 15:18:00,
2013-09-04 10:23:00,75.8,59.5,30.09,WSW,248,1.0,2.0,57,0.00,,,0.00,Wunderground v.1.15,2013-09-04 15:23:00,
2013-09-04 10:28:00,76.2,60.3,30.09,WSW,248,1.0,2.0,58,0.00,,,0.00,Wunderground v.1.15,2013-09-04 15:28:00,
2013-09-04 10:34:00,76.6,60.2,30.09,WSW,248,1.0,3.0,57,0.00,,,0.00,Wunderground v.1.15,2013-09-04 15:34:00,
2013-09-04 10:39:00,77.1,59.7,30.09,WSW,249,1.0,3.0,55,0.00,,,0.00,Wunderground v.1.15,2013-09-04 15:39:00,
2013-09-04 10:44:00,77.6,59.6,30.09,WSW,250,1.0,3.0,54,0.00,,,0.00,Wunderground v.1.15,2013-09-04 15:44:00,
2013-09-04 10:49:00,77.9,59.9,30.09,WSW,250,1.0,3.0,54,0.00,,,0.00,Wunderground v.1.15,2013-09-04 15:49:00,
2013-09-04 10:54:00,78.0,60.5,30.09,WSW,250,2.0,3.0,55,0.00,,,0.00,Wunderground v.1.15,2013-09-04 15:54:00,
2013-09-04 11:00:00,78.3,60.8,30.09,WSW,251,1.0,5.0,55,0.00,,,0.00,Wunderground v.1.15,2013-09-04 16:00:00,
2013-09-04 11:05:00,78.4,60.9,30.09,WSW,252,1.0,5.0,55,0.00,,,0.00,Wunderground v.1.15,2013-09-04 16:05:00,
2013-09-04 11:10:00,78.4,61.4,30.09,WSW,251,1.0,1.0,56,0.00,,,0.00,Wunderground v.1.15,2013-09-04 16:10:00,
2013-09-04 11:15:00,78.7,61.7,30.09,WSW,251,1.0,3.0,56,0.00,,,0.00,Wunderground v.1.15,2013-09-04 16:15:00,
2013-09-04 11:20:00,79.3,61.2,30.09,WSW,252,0.0,0.0,54,0.00,,,0.00,Wunderground v.1.15,2013-09-04 16:20:00,
2013-09-04 11:26:00,79.8,62.7,30.09,WSW,252,1.0,3.0,56,0.00,,,0.00,Wunderground v.1.15,2013-09-04 16:26:00,
2013-09-04 11:31:00,79.8,61.7,30.09,WSW,252,1.0,4.0,54,0.00,,,0.00,Wunderground v.1.15,2013-09-04 16:31:00,
2013-09-04 11:36:00,79.9,63.8,30.09,WSW,252,1.0,4.0,58,0.00,,,0.00,Wunderground v.1.15,2013-09-04 16:36:00,
2013-09-04 11:41:00,80.0,62.4,30.09,WSW,252,1.0,2.0,55,0.00,,,0.00,Wunderground v.1.15,2013-09-04 16:41:00,
2013-09-04 11:46:00,80.3,62.7,30.09,West,269,2.0,7.0,55,0.00,,,0.00,Wunderground v.1.15,2013-09-04 16:46:00,
2013-09-04 11:51:00,80.5,63.4,30.09,West,269,2.0,3.0,56,0.00,,,0.00,Wunderground v.1.15,2013-09-04 16:51:00,
2013-09-04 11:56:00,80.7,62.5,30.09,West,269,1.0,3.0,54,0.00,,,0.00,Wunderground v.1.15,2013-09-04 16:56:00,
2013-09-04 12:01:00,80.8,64.1,30.09,West,269,1.0,2.0,57,0.00,,,0.00,Wunderground v.1.15,2013-09-04 17:01:00,
2013-09-04 12:06:00,81.0,63.3,30.08,West,269,1.0,3.0,55,0.00,,,0.00,Wunderground v.1.15,2013-09-04 17:06:00,
2013-09-04 12:11:00,81.2,63.5,30.08,West,269,1.0,5.0,55,0.00,,,0.00,Wunderground v.1.15,2013-09-04 17:11:00,
2013-09-04 12:16:00,81.3,63.6,30.08,West,269,1.0,5.0,55,0.00,,,0.00,Wunderground v.1.15,2013-09-04 17:16:00,
2013-09-04 12:21:00,81.5,62.7,30.08,West,269,2.0,2.0,53,0.00,,,0.00,Wunderground v.1.15,2013-09-04 17:21:00,
2013-09-04 12:26:00,81.8,64.6,30.08,West,269,1.0,2.0,56,0.00,,,0.00,Wunderground v.1.15,2013-09-04 17:26:00,
2013-09-04 12:31:00,82.1,64.8,30.08,West,275,2.0,5.0,56,0.00,,,0.00,Wunderground v.1.15,2013-09-04 17:31:00,
2013-09-04 12:37:00,82.1,62.7,30.08,West,275,2.0,5.0,52,0.00,,,0.00,Wunderground v.1.15,2013-09-04 17:37:00,
2013-09-04 12:42:00,82.5,64.2,30.07,West,275,1.0,2.0,54,0.00,,,0.00,Wunderground v.1.15,2013-09-04 17:42:00,
2013-09-04 12:47:00,82.5,63.6,30.07,West,274,1.0,6.0,53,0.00,,,0.00,Wunderground v.1.15,2013-09-04 17:47:00,
2013-09-04 12:52:00,82.6,63.2,30.07,West,275,2.0,6.0,52,0.00,,,0.00,Wunderground v.1.15,2013-09-04 17:52:00,
2013-09-04 12:57:00,82.8,63.9,30.07,West,275,2.0,6.0,53,0.00,,,0.00,Wunderground v.1.15,2013-09-04 17:57:00,
2013-09-04 13:02:00,82.9,63.5,30.07,West,275,2.0,4.0,52,0.00,,,0.00,Wunderground v.1.15,2013-09-04 18:02:00,
2013-09-04 13:07:00,83.1,64.7,30.07,West,275,1.0,4.0,54,0.00,,,0.00,Wunderground v.1.15,2013-09-04 18:07:00,
2013-09-04 13:12:00,83.5,65.1,30.07,West,275,2.0,4.0,54,0.00,,,0.00,Wunderground v.1.15,2013-09-04 18:12:00,
2013-09-04 13:17:00,83.7,65.3,30.07,West,275,2.0,4.0,54,0.00,,,0.00,Wunderground v.1.15,2013-09-04 18:17:00,
2013-09-04 13:22:00,83.9,64.9,30.07,West,275,1.0,2.0,53,0.00,,,0.00,Wunderground v.1.15,2013-09-04 18:22:00,
2013-09-04 13:27:00,84.0,64.5,30.07,West,274,2.0,2.0,52,0.00,,,0.00,Wunderground v.1.15,2013-09-04 18:27:00,
2013-09-04 13:32:00,84.1,65.1,30.07,West,275,2.0,4.0,53,0.00,,,0.00,Wunderground v.1.15,2013-09-04 18:32:00,
2013-09-04 13:37:00,84.3,66.4,30.06,West,278,2.0,4.0,55,0.00,,,0.00,Wunderground v.1.15,2013-09-04 18:37:00,
2013-09-04 13:42:00,84.4,65.9,30.06,WNW,284,2.0,3.0,54,0.00,,,0.00,Wunderground v.1.15,2013-09-04 18:42:00,
2013-09-04 13:47:00,84.5,65.5,30.06,WNW,284,2.0,3.0,53,0.00,,,0.00,Wunderground v.1.15,2013-09-04 18:47:00,
2013-09-04 13:52:00,84.8,65.8,30.06,WNW,284,1.0,3.0,53,0.00,,,0.00,Wunderground v.1.15,2013-09-04 18:52:00,
2013-09-04 13:57:00,85.0,66.0,30.06,WNW,284,2.0,3.0,53,0.00,,,0.00,Wunderground v.1.15,2013-09-04 18:57:00,
2013-09-04 14:02:00,85.2,67.2,30.06,WNW,291,2.0,6.0,55,0.00,,,0.00,Wunderground v.1.15,2013-09-04 19:02:00,
2013-09-04 14:07:00,85.3,66.8,30.06,WNW,285,2.0,6.0,54,0.00,,,0.00,Wunderground v.1.15,2013-09-04 19:07:00,
2013-09-04 14:12:00,85.4,66.3,30.05,WNW,285,2.0,2.0,53,0.00,,,0.00,Wunderground v.1.15,2013-09-04 19:12:00,
2013-09-04 14:17:00,85.4,65.2,30.06,WNW,290,1.0,5.0,51,0.00,,,0.00,Wunderground v.1.15,2013-09-04 19:17:00,
2013-09-04 14:22:00,85.5,65.9,30.05,WNW,290,1.0,5.0,52,0.00,,,0.00,Wunderground v.1.15,2013-09-04 19:22:00,
2013-09-04 14:27:00,85.8,66.1,30.05,WNW,290,0.0,5.0,52,0.00,,,0.00,Wunderground v.1.15,2013-09-04 19:27:00,
2013-09-04 14:33:00,86.2,67.1,30.05,WNW,284,1.0,4.0,53,0.00,,,0.00,Wunderground v.1.15,2013-09-04 19:33:00,
2013-09-04 14:38:00,86.2,67.1,30.05,WNW,290,2.0,7.0,53,0.00,,,0.00,Wunderground v.1.15,2013-09-04 19:38:00,
2013-09-04 14:43:00,86.1,67.0,30.05,WNW,291,2.0,4.0,53,0.00,,,0.00,Wunderground v.1.15,2013-09-04 19:43:00,
2013-09-04 14:48:00,86.0,65.8,30.05,WNW,290,3.0,4.0,51,0.00,,,0.00,Wunderground v.1.15,2013-09-04 19:48:00,
2013-09-04 14:53:00,86.1,66.4,30.05,WNW,290,1.0,2.0,52,0.00,,,0.00,Wunderground v.1.15,2013-09-04 19:53:00,
2013-09-04 14:58:00,86.3,66.0,30.05,WNW,284,1.0,5.0,51,0.00,,,0.00,Wunderground v.1.15,2013-09-04 19:58:00,
2013-09-04 15:04:00,86.4,66.1,30.04,West,280,2.0,5.0,51,0.00,,,0.00,Wunderground v.1.15,2013-09-04 20:04:00,
2013-09-04 15:09:00,86.8,67.6,30.04,West,280,2.0,6.0,53,0.00,,,0.00,Wunderground v.1.15,2013-09-04 20:09:00,
2013-09-04 15:14:00,86.9,66.0,30.04,West,275,2.0,4.0,50,0.00,,,0.00,Wunderground v.1.15,2013-09-04 20:14:00,
2013-09-04 15:19:00,86.8,66.5,30.04,West,275,2.0,4.0,51,0.00,,,0.00,Wunderground v.1.15,2013-09-04 20:19:00,
2013-09-04 15:24:00,87.0,66.7,30.04,West,275,1.0,4.0,51,0.00,,,0.00,Wunderground v.1.15,2013-09-04 20:24:00,
2013-09-04 15:29:00,87.1,66.8,30.04,West,271,2.0,4.0,51,0.00,,,0.00,Wunderground v.1.15,2013-09-04 20:29:00,
2013-09-04 15:34:00,87.1,66.2,30.03,West,271,2.0,2.0,50,0.00,,,0.00,Wunderground v.1.15,2013-09-04 20:34:00,
2013-09-04 15:39:00,87.1,66.8,30.03,West,271,1.0,3.0,51,0.00,,,0.00,Wunderground v.1.15,2013-09-04 20:39:00,
2013-09-04 15:44:00,87.1,66.8,30.03,West,277,1.0,5.0,51,0.00,,,0.00,Wunderground v.1.15,2013-09-04 20:44:00,
2013-09-04 15:49:00,87.0,67.2,30.03,West,277,2.0,6.0,52,0.00,,,0.00,Wunderground v.1.15,2013-09-04 20:49:00,
2013-09-04 15:54:00,87.0,66.7,30.03,West,277,2.0,3.0,51,0.00,,,0.00,Wunderground v.1.15,2013-09-04 20:54:00,
2013-09-04 16:00:00,87.1,66.2,30.03,West,277,1.0,1.0,50,0.00,,,0.00,Wunderground v.1.15,2013-09-04 21:00:00,
2013-09-04 16:05:00,87.2,68.0,30.03,West,277,0.0,1.0,53,0.00,,,0.00,Wunderground v.1.15,2013-09-04 21:05:00,
2013-09-04 16:10:00,87.5,67.1,30.03,West,277,0.0,0.0,51,0.00,,,0.00,Wunderground v.1.15,2013-09-04 21:10:00,
2013-09-04 16:15:00,87.5,66.0,30.03,West,277,1.0,2.0,49,0.00,,,0.00,Wunderground v.1.15,2013-09-04 21:15:00,
2013-09-04 16:20:00,87.4,66.5,30.03,West,277,1.0,1.0,50,0.00,,,0.00,Wunderground v.1.15,2013-09-04 21:20:00,
2013-09-04 16:26:00,87.5,67.1,30.03,West,277,1.0,1.0,51,0.00,,,0.00,Wunderground v.1.15,2013-09-04 21:26:00,
2013-09-04 16:31:00,87.5,68.3,30.03,West,277,0.0,2.0,53,0.00,,,0.00,Wunderground v.1.15,2013-09-04 21:31:00,
2013-09-04 16:36:00,87.3,68.6,30.03,West,277,0.0,2.0,54,0.00,,,0.00,Wunderground v.1.15,2013-09-04 21:36:00,
2013-09-04 16:41:00,87.2,67.4,30.02,West,277,0.0,0.0,52,0.00,,,0.00,Wunderground v.1.15,2013-09-04 21:41:00,
2013-09-04 16:46:00,86.6,66.3,30.02,West,279,1.0,5.0,51,0.00,,,0.00,Wunderground v.1.15,2013-09-04 21:46:00,
2013-09-04 16:52:00,86.0,66.9,30.02,West,279,1.0,3.0,53,0.00,,,0.00,Wunderground v.1.15,2013-09-04 21:52:00,
2013-09-04 16:57:00,86.1,68.0,30.02,West,279,0.0,4.0,55,0.00,,,0.00,Wunderground v.1.15,2013-09-04 21:57:00,
2013-09-04 17:02:00,86.2,67.6,30.02,West,280,1.0,2.0,54,0.00,,,0.00,Wunderground v.1.15,2013-09-04 22:02:00,
2013-09-04 17:07:00,86.2,67.6,30.02,West,281,2.0,4.0,54,0.00,,,0.00,Wunderground v.1.15,2013-09-04 22:07:00,
2013-09-04 17:12:00,86.5,67.9,30.02,West,281,1.0,1.0,54,0.00,,,0.00,Wunderground v.1.15,2013-09-04 22:12:00,
2013-09-04 17:18:00,86.6,66.9,30.02,West,281,1.0,2.0,52,0.00,,,0.00,Wunderground v.1.15,2013-09-04 22:18:00,
2013-09-04 17:23:00,86.6,66.9,30.02,West,281,1.0,1.0,52,0.00,,,0.00,Wunderground v.1.15,2013-09-04 22:23:00,
2013-09-04 17:28:00,86.5,67.9,30.02,West,281,1.0,1.0,54,0.00,,,0.00,Wunderground v.1.15,2013-09-04 22:28:00,
2013-09-04 17:33:00,86.4,67.8,30.02,West,281,1.0,1.0,54,0.00,,,0.00,Wunderground v.1.15,2013-09-04 22:33:00,
2013-09-04 17:38:00,86.1,67.0,30.02,West,281,0.0,1.0,53,0.00,,,0.00,Wunderground v.1.15,2013-09-04 22:38:00,
2013-09-04 17:44:00,86.0,67.4,30.02,WNW,284,0.0,0.0,54,0.00,,,0.00,Wunderground v.1.15,2013-09-04 22:44:00,
2013-09-04 17:49:00,85.8,67.2,30.02,WNW,284,0.0,0.0,54,0.00,,,0.00,Wunderground v.1.15,2013-09-04 22:49:00,
2013-09-04 17:54:00,85.6,66.5,30.02,WNW,284,0.0,0.0,53,0.00,,,0.00,Wunderground v.1.15,2013-09-04 22:54:00,
2013-09-04 17:59:00,85.5,67.0,30.02,WNW,284,0.0,0.0,54,0.00,,,0.00,Wunderground v.1.15,2013-09-04 22:59:00,
2013-09-04 18:04:00,85.3,66.8,30.02,WNW,284,0.0,0.0,54,0.00,,,0.00,Wunderground v.1.15,2013-09-04 23:04:00,
2013-09-04 18:09:00,85.4,66.9,30.02,WNW,284,0.0,0.0,54,0.00,,,0.00,Wunderground v.1.15,2013-09-04 23:09:00,
2013-09-04 18:14:00,85.6,66.5,30.02,WNW,284,0.0,0.0,53,0.00,,,0.00,Wunderground v.1.15,2013-09-04 23:14:00,
2013-09-04 18:19:00,85.7,66.6,30.02,WNW,284,0.0,0.0,53,0.00,,,0.00,Wunderground v.1.15,2013-09-04 23:19:00,
2013-09-04 18:24:00,85.9,67.3,30.02,WNW,284,0.0,0.0,54,0.00,,,0.00,Wunderground v.1.15,2013-09-04 23:24:00,
2013-09-04 18:29:00,86.0,68.0,30.02,WNW,284,0.0,0.0,55,0.00,,,0.00,Wunderground v.1.15,2013-09-04 23:29:00,
2013-09-04 18:34:00,85.9,68.9,30.02,WNW,284,0.0,0.0,57,0.00,,,0.00,Wunderground v.1.15,2013-09-04 23:34:00,
2013-09-04 18:40:00,85.6,70.1,30.02,WNW,284,0.0,0.0,60,0.00,,,0.00,Wunderground v.1.15,2013-09-04 23:40:00,
2013-09-04 18:45:00,85.4,70.4,30.02,WNW,284,0.0,0.0,61,0.00,,,0.00,Wunderground v.1.15,2013-09-04 23:45:00,
2013-09-04 18:50:00,84.9,70.4,30.02,WNW,284,0.0,0.0,62,0.00,,,0.00,Wunderground v.1.15,2013-09-04 23:50:00,
2013-09-04 18:55:00,84.3,70.3,30.02,WNW,284,0.0,0.0,63,0.00,,,0.00,Wunderground v.1.15,2013-09-04 23:55:00,
2013-09-04 19:00:00,83.6,70.1,30.02,WNW,284,0.0,0.0,64,0.00,,,0.00,Wunderground v.1.15,2013-09-05 00:00:00,
2013-09-04 19:05:00,83.0,69.6,30.02,WNW,284,0.0,0.0,64,0.00,,,0.00,Wunderground v.1.15,2013-09-05 00:05:00,
2013-09-04 19:10:00,82.6,69.2,30.02,WNW,284,0.0,0.0,64,0.00,,,0.00,Wunderground v.1.15,2013-09-05 00:10:00,
2013-09-04 19:16:00,82.1,68.7,30.02,WNW,284,0.0,0.0,64,0.00,,,0.00,Wunderground v.1.15,2013-09-05 00:16:00,
2013-09-04 19:21:00,81.5,68.1,30.02,WNW,284,0.0,0.0,64,0.00,,,0.00,Wunderground v.1.15,2013-09-05 00:21:00,
2013-09-04 19:26:00,81.0,67.7,30.02,WNW,284,0.0,0.0,64,0.00,,,0.00,Wunderground v.1.15,2013-09-05 00:26:00,
2013-09-04 19:31:00,80.5,67.6,30.02,WNW,284,0.0,0.0,65,0.00,,,0.00,Wunderground v.1.15,2013-09-05 00:31:00,
2013-09-04 19:36:00,80.1,67.7,30.02,WNW,284,0.0,0.0,66,0.00,,,0.00,Wunderground v.1.15,2013-09-05 00:36:00,
2013-09-04 19:41:00,79.6,67.2,30.02,WNW,284,0.0,0.0,66,0.00,,,0.00,Wunderground v.1.15,2013-09-05 00:41:00,
2013-09-04 19:46:00,79.4,67.0,30.02,WNW,284,0.0,0.0,66,0.00,,,0.00,Wunderground v.1.15,2013-09-05 00:46:00,
2013-09-04 19:51:00,79.2,67.3,30.03,WNW,284,0.0,0.0,67,0.00,,,0.00,Wunderground v.1.15,2013-09-05 00:51:00,
2013-09-04 19:56:00,78.6,66.7,30.02,WNW,284,0.0,0.0,67,0.00,,,0.00,Wunderground v.1.15,2013-09-05 00:56:00,
2013-09-04 20:01:00,77.9,66.5,30.03,WNW,284,0.0,0.0,68,0.00,,,0.00,Wunderground v.1.15,2013-09-05 01:01:00,
2013-09-04 20:07:00,77.5,66.5,30.03,WNW,284,0.0,0.0,69,0.00,,,0.00,Wunderground v.1.15,2013-09-05 01:07:00,
2013-09-04 20:13:00,77.0,66.0,30.03,WNW,284,0.0,0.0,69,0.00,,,0.00,Wunderground v.1.15,2013-09-05 01:13:00,
2013-09-04 20:18:00,76.6,66.1,30.03,WNW,284,0.0,0.0,70,0.00,,,0.00,Wunderground v.1.15,2013-09-05 01:18:00,
2013-09-04 20:23:00,76.4,66.3,30.03,WNW,284,0.0,0.0,71,0.00,,,0.00,Wunderground v.1.15,2013-09-05 01:23:00,
2013-09-04 20:29:00,76.1,66.0,30.03,WNW,284,0.0,0.0,71,0.00,,,0.00,Wunderground v.1.15,2013-09-05 01:29:00,
2013-09-04 20:34:00,75.9,65.8,30.03,WNW,284,0.0,0.0,71,0.00,,,0.00,Wunderground v.1.15,2013-09-05 01:34:00,
2013-09-04 20:39:00,75.8,66.1,30.03,WNW,284,0.0,0.0,72,0.00,,,0.00,Wunderground v.1.15,2013-09-05 01:39:00,
2013-09-04 20:44:00,75.5,65.4,30.04,WNW,284,0.0,0.0,71,0.00,,,0.00,Wunderground v.1.15,2013-09-05 01:44:00,
2013-09-04 20:50:00,75.2,65.6,30.04,WNW,284,0.0,0.0,72,0.00,,,0.00,Wunderground v.1.15,2013-09-05 01:50:00,
2013-09-04 20:55:00,75.1,65.5,30.04,WNW,284,0.0,0.0,72,0.00,,,0.00,Wunderground v.1.15,2013-09-05 01:55:00,
2013-09-04 21:01:00,75.0,65.8,30.04,WNW,284,0.0,0.0,73,0.00,,,0.00,Wunderground v.1.15,2013-09-05 02:01:00,
2013-09-04 21:06:00,74.7,65.5,30.04,WNW,284,0.0,0.0,73,0.00,,,0.00,Wunderground v.1.15,2013-09-05 02:06:00,
2013-09-04 21:11:00,74.3,65.5,30.04,WNW,284,0.0,0.0,74,0.00,,,0.00,Wunderground v.1.15,2013-09-05 02:11:00,
2013-09-04 21:17:00,73.9,66.2,30.04,WNW,284,0.0,0.0,77,0.00,,,0.00,Wunderground v.1.15,2013-09-05 02:17:00,
2013-09-04 21:22:00,73.4,65.7,30.04,WNW,284,0.0,0.0,77,0.00,,,0.00,Wunderground v.1.15,2013-09-05 02:22:00,
2013-09-04 21:27:00,73.0,65.7,30.04,WNW,284,0.0,0.0,78,0.00,,,0.00,Wunderground v.1.15,2013-09-05 02:27:00,
2013-09-04 21:32:00,72.6,65.3,30.04,WNW,284,0.0,0.0,78,0.00,,,0.00,Wunderground v.1.15,2013-09-05 02:32:00,
2013-09-04 21:37:00,72.2,66.0,30.04,WNW,284,0.0,0.0,81,0.00,,,0.00,Wunderground v.1.15,2013-09-05 02:37:00,
2013-09-04 21:43:00,72.2,66.4,30.04,WNW,284,0.0,0.0,82,0.00,,,0.00,Wunderground v.1.15,2013-09-05 02:43:00,
2013-09-04 21:48:00,72.2,66.0,30.04,WNW,284,0.0,0.0,81,0.00,,,0.00,Wunderground v.1.15,2013-09-05 02:48:00,
2013-09-04 21:53:00,71.8,65.7,30.04,WNW,284,0.0,0.0,81,0.00,,,0.00,Wunderground v.1.15,2013-09-05 02:53:00,
2013-09-04 21:58:00,71.3,65.2,30.04,WNW,284,0.0,0.0,81,0.00,,,0.00,Wunderground v.1.15,2013-09-05 02:58:00,
2013-09-04 22:03:00,70.8,64.7,30.05,WNW,284,0.0,0.0,81,0.00,,,0.00,Wunderground v.1.15,2013-09-05 03:03:00,
2013-09-04 22:09:00,70.2,64.8,30.05,WNW,284,0.0,0.0,83,0.00,,,0.00,Wunderground v.1.15,2013-09-05 03:09:00,
2013-09-04 22:14:00,69.9,64.8,30.05,WNW,284,0.0,0.0,84,0.00,,,0.00,Wunderground v.1.15,2013-09-05 03:14:00,
2013-09-04 22:20:00,69.8,64.7,30.04,WNW,284,0.0,0.0,84,0.00,,,0.00,Wunderground v.1.15,2013-09-05 03:20:00,
2013-09-04 22:25:00,69.7,65.0,30.04,WNW,284,0.0,0.0,85,0.00,,,0.00,Wunderground v.1.15,2013-09-05 03:25:00,
2013-09-04 22:30:00,69.7,65.0,30.05,WNW,284,0.0,0.0,85,0.00,,,0.00,Wunderground v.1.15,2013-09-05 03:30:00,
2013-09-04 22:36:00,69.6,64.9,30.05,WNW,284,0.0,0.0,85,0.00,,,0.00,Wunderground v.1.15,2013-09-05 03:36:00,
2013-09-04 22:41:00,69.8,65.1,30.05,WNW,284,0.0,0.0,85,0.00,,,0.00,Wunderground v.1.15,2013-09-05 03:41:00,
2013-09-04 22:46:00,69.9,65.5,30.05,WNW,284,0.0,0.0,86,0.00,,,0.00,Wunderground v.1.15,2013-09-05 03:46:00,
2013-09-04 22:51:00,69.9,65.5,30.06,WNW,284,0.0,0.0,86,0.00,,,0.00,Wunderground v.1.15,2013-09-05 03:51:00,
2013-09-04 22:56:00,69.9,65.5,30.05,WNW,284,0.0,0.0,86,0.00,,,0.00,Wunderground v.1.15,2013-09-05 03:56:00,
2013-09-04 23:01:00,69.7,65.0,30.06,WNW,284,0.0,0.0,85,0.00,,,0.00,Wunderground v.1.15,2013-09-05 04:01:00,
2013-09-04 23:02:00,69.7,65.0,30.06,WNW,284,0.0,0.0,85,0.00,,,0.00,Wunderground v.1.15,2013-09-05 04:02:00,
2013-09-04 23:03:00,69.7,65.0,30.06,WNW,284,0.0,0.0,85,0.00,,,0.00,Wunderground v.1.15,2013-09-05 04:03:00,
2013-09-04 23:04:00,69.7,65.0,30.06,WNW,284,0.0,0.0,85,0.00,,,0.00,Wunderground v.1.15,2013-09-05 04:04:00,
2013-09-04 23:06:00,69.7,65.0,30.05,WNW,284,0.0,0.0,85,0.00,,,0.00,Wunderground v.1.15,2013-09-05 04:06:00,
2013-09-04 23:11:00,69.6,64.9,30.05,WNW,284,0.0,0.0,85,0.00,,,0.00,Wunderground v.1.15,2013-09-05 04:11:00,
2013-09-04 23:13:00,69.6,64.9,30.05,WNW,284,0.0,0.0,85,0.00,,,0.00,Wunderground v.1.15,2013-09-05 04:13:00,
2013-09-04 23:18:00,69.7,65.0,30.06,WNW,284,0.0,0.0,85,0.00,,,0.00,Wunderground v.1.15,2013-09-05 04:18:00,
2013-09-04 23:23:00,69.7,65.0,30.06,WNW,284,0.0,0.0,85,0.00,,,0.00,Wunderground v.1.15,2013-09-05 04:23:00,
2013-09-04 23:29:00,69.7,65.0,30.05,WNW,284,0.0,0.0,85,0.00,,,0.00,Wunderground v.1.15,2013-09-05 04:29:00,
2013-09-04 23:34:00,69.6,64.9,30.06,WNW,284,0.0,0.0,85,0.00,,,0.00,Wunderground v.1.15,2013-09-05 04:34:00,
2013-09-04 23:39:00,69.5,64.8,30.06,WNW,284,0.0,0.0,85,0.00,,,0.00,Wunderground v.1.15,2013-09-05 04:39:00,
2013-09-04 23:44:00,69.4,65.0,30.06,WNW,284,0.0,0.0,86,0.00,,,0.00,Wunderground v.1.15,2013-09-05 04:44:00,
2013-09-04 23:49:00,69.5,65.1,30.06,WNW,284,0.0,0.0,86,0.00,,,0.00,Wunderground v.1.15,2013-09-05 04:49:00,
2013-09-04 23:54:00,69.5,64.8,30.06,WNW,284,0.0,0.0,85,0.00,,,0.00,Wunderground v.1.15,2013-09-05 04:54:00,
2013-09-04 23:59:00,69.5,64.8,30.05,WNW,284,0.0,0.0,85,0.00,,,0.00,Wunderground v.1.15,2013-09-05 04:59:00,